Jackson, TN

1:16 PM CST on November 20, 2019 (GMT -0600)
McKellar-Sipes Regional

Weather History for KMKL - July, 2019

Change the Weather History Date:

Wednesday, July 17, 2019

  Actual Average Record
Temperature  
Mean Temperature 83 °F 80 °F  
Max Temperature 92 °F 91 °F 101 °F (1954)
Min Temperature 74 °F 69 °F 58 °F (2014)
Degree Days  
Heating Degree Days 0 0  
Month to date heating degree days 0 0  
Since 1 June heating degree days 1 2  
Since 1 July heating degree days 0 0  
Cooling Degree Days 18 15  
Month to date cooling degree days 272 248  
Year to date cooling degree days 853 802  
Since 1 June cooling degree days 593 587  
Growing Degree Days 32 (Base 50)    
Moisture  
Dew Point 76 °F    
Average Humidity 85    
Maximum Humidity 100    
Minimum Humidity 70    
Precipitation  
Precipitation 0.00 in 0.16 in 0.82 in (1984)
Month to date precipitation 7.18 2.52  
Year to date precipitation 40.00 30.90  
Sea Level Pressure  
Sea Level Pressure 30.02 in    
Wind  
Wind Speed 7 mph (SW)    
Max Wind Speed 14 mph    
Max Gust Speed 20 mph    
Visibility 9 miles    
Events Rain    
T = Trace of Precipitation, MM = Missing Value Source: NWS Daily Summary

Daily Weather History Graph

Daily Weather History Graph

Search for Another Location

Airport or City:

Astronomy

Jul. 17, 2019 Rise Set
Actual Time 5:52 AM CDT 8:10 PM CDT
Civil Twilight 5:23 AM CDT 8:39 PM CDT
Nautical Twilight 4:47 AM CDT 9:15 PM CDT
Astronomical Twilight 4:08 AM CDT 9:54 PM CDT
Moon 8:59 PM CDT (7/17) 6:25 AM CDT (7/17)
Length of Visible Light 15h 16m
Length of Day
14h 17m
Full, 99% of the Moon is Illuminated
Jul 17
Full
Jul 24
Last Quarter
Jul 31
New
Aug 7
First Quarter
Aug 15
Full

Hourly Weather History & Observations

Time (CDT) Temp. Heat Index Dew Point Humidity Pressure Visibility Wind Dir Wind Speed Gust Speed Precip Events Conditions
12:53 AM 75.0 °F - 73.0 °F 94% 30.00 in 10.0 mi SSW 6.9 mph - N/A   Mostly Cloudy
1:53 AM 73.9 °F - 73.0 °F 97% 29.99 in 10.0 mi SSW 8.1 mph - N/A   Partly Cloudy
2:14 AM 73.9 °F - 73.0 °F 97% 30.00 in 10.0 mi SSW 6.9 mph - N/A   Mostly Cloudy
2:26 AM 73.9 °F - 73.0 °F 97% 30.00 in 10.0 mi SSW 5.8 mph - N/A   Overcast
2:53 AM 75.0 °F - 73.0 °F 94% 29.98 in 10.0 mi SSW 6.9 mph - N/A   Overcast
3:00 AM 75.0 °F - 73.0 °F 94% 29.99 in 10.0 mi SSW 8.1 mph - N/A   Overcast
3:15 AM 75.0 °F - 73.0 °F 94% 29.99 in 10.0 mi SSW 6.9 mph - N/A   Overcast
3:53 AM 75.0 °F - 73.0 °F 94% 29.98 in 10.0 mi SSW 6.9 mph - N/A   Overcast
4:24 AM 75.0 °F - 73.0 °F 94% 30.00 in 10.0 mi SSW 6.9 mph - N/A   Overcast
4:53 AM 75.0 °F - 73.0 °F 94% 29.98 in 10.0 mi SW 6.9 mph - N/A   Overcast
5:53 AM 75.0 °F - 73.0 °F 94% 29.99 in 10.0 mi SW 6.9 mph - N/A   Overcast
6:20 AM 75.0 °F - 73.9 °F 96% 30.02 in 10.0 mi SW 6.9 mph - N/A   Overcast
6:33 AM 75.0 °F - 73.9 °F 96% 30.02 in 10.0 mi SW 5.8 mph - N/A   Overcast
6:53 AM 75.0 °F - 73.9 °F 96% 30.01 in 10.0 mi SW 5.8 mph - N/A   Overcast
7:08 AM 75.9 °F - 73.9 °F 94% 30.03 in 10.0 mi SW 8.1 mph - N/A   Overcast
7:33 AM 75.9 °F - 73.9 °F 94% 30.04 in 10.0 mi SW 5.8 mph - N/A   Overcast
7:53 AM 77.0 °F - 75.0 °F 94% 30.04 in 10.0 mi SW 8.1 mph - N/A   Overcast
8:53 AM 79.0 °F - 75.9 °F 90% 30.04 in 10.0 mi SW 8.1 mph - N/A   Overcast
9:53 AM 81.0 °F 87.9 °F 77.0 °F 88% 30.05 in 10.0 mi SW 9.2 mph - N/A   Overcast
10:04 AM 81.0 °F 87.9 °F 77.0 °F 88% 30.06 in 10.0 mi WSW 8.1 mph - N/A   Overcast
10:53 AM 82.0 °F 90.2 °F 77.0 °F 85% 30.06 in 10.0 mi West 8.1 mph - N/A   Overcast
11:20 AM 82.0 °F 90.2 °F 77.0 °F 85% 30.07 in 10.0 mi West 9.2 mph - N/A   Overcast
11:27 AM 82.9 °F 92.8 °F 78.1 °F 85% 30.07 in 10.0 mi West 8.1 mph - N/A   Overcast
11:53 AM 84.0 °F 94.8 °F 78.1 °F 82% 30.06 in 10.0 mi West 5.8 mph - N/A   Overcast
12:53 PM 86.0 °F 98.3 °F 78.1 °F 77% 30.05 in 10.0 mi Variable 4.6 mph - N/A   Overcast
1:51 PM 89.6 °F 108.2 °F 80.6 °F 75% 30.04 in 10.0 mi WSW 4.6 mph - N/A   Mostly Cloudy
1:53 PM 89.1 °F 106.4 °F 80.1 °F 75% 30.03 in 10.0 mi WSW 5.8 mph - N/A   Mostly Cloudy
2:53 PM 91.0 °F 109.1 °F 80.1 °F 70% 30.00 in 10.0 mi WSW 10.4 mph - N/A   Partly Cloudy
3:53 PM 91.9 °F 110.4 °F 80.1 °F 68% 29.98 in 10.0 mi SW 13.8 mph - N/A   Partly Cloudy
4:53 PM 91.9 °F 112.0 °F 81.0 °F 70% 29.98 in 10.0 mi SW 11.5 mph - N/A   Mostly Cloudy
5:53 PM 91.0 °F 109.1 °F 80.1 °F 70% 29.97 in 10.0 mi WSW 10.4 mph - N/A   Clear
6:53 PM 89.1 °F 106.4 °F 80.1 °F 75% 29.97 in 10.0 mi SW 6.9 mph - N/A   Clear
7:53 PM 84.0 °F 97.3 °F 80.1 °F 88% 29.98 in 10.0 mi SW 4.6 mph - N/A   Partly Cloudy
8:53 PM 82.0 °F 92.8 °F 80.1 °F 94% 30.00 in 10.0 mi South 3.5 mph - N/A   Clear
9:53 PM 81.0 °F 89.2 °F 79.0 °F 94% 30.02 in 10.0 mi SW 3.5 mph - N/A   Clear
10:53 PM 80.1 °F 85.8 °F 77.0 °F 90% 30.05 in 9.0 mi North - - N/A   Mostly Cloudy
11:16 PM 78.1 °F - 73.0 °F 84% 30.08 in 4.0 mi ENE 8.1 mph - 0.00 in Rain Heavy Rain
11:20 PM 75.9 °F - 73.0 °F 91% 30.07 in 2.5 mi NNE 8.1 mph - 0.00 in Rain Heavy Rain
11:25 PM 75.0 °F - 73.0 °F 94% 30.06 in 3.0 mi ENE 5.8 mph - N/A Rain Rain
11:53 PM 75.0 °F - 73.9 °F 96% 30.06 in 5.0 mi Calm Calm - N/A Rain Light Rain